www.pogodaiklimat.ru

Погода и климат >> Архив погоды >> Хорватия >> Dubrovnik-Gorica


ПОГОДА в Dubrovnik-Gorica

  • Прогноз погоды в Dubrovnik-Gorica
  • Монитор погоды в Dubrovnik-Gorica
  • Климат города

АРХИВ ПОГОДЫ в Dubrovnik-Gorica

Время (UTC), дата Ветер
(напр.,м/с)
 
Видим.   Явления Облачность Т
(С)
Тd
(С)
f
(%)
Тe
(С)
Тes
(С)
Комфортность P
(гПа)
Po
(гПа)
Тmin
(С)
Tmax
(С)
R
(мм)
R24
(мм)
S
(см)
07 15.10 СВ 2 20 км 6/0
[Ac cast Ci fib]
+20.3 +5.5 38 +22 +23 комфорт 1018.3 1012.0
08 15.10 ЮВ 1 20 км 3/0
[Ci fib]
+22.5 +4.7 31 +23 +27 комфорт 1018.3 1012.1
09 15.10 ЮЗ 2 20 км 3/0
[Ci fib]
+25.2 +9.7 38 +26 +32 жарко 1018.5 1012.3
11 15.10 Ю 2 20 км 3/0
[Ci fib]
+25.3 +9.4 37 +26 +33 жарко 1019.1 1012.9
10 15.10 ЮЗ 1 20 км 3/0
[Ci fib]
+25.0 +9.9 38 +26 +34 жарко 1019.0 1012.8
12 15.10 Ю 2 20 км 3/0
[Ci fib]
+25.7 +9.1 35 +26 +33 жарко 1018.5 1012.3
13 15.10 Ю 2 20 км 3/0
[Ci fib]
+25.4 +10.0 38 +26 +31 жарко 1018.3 1012.1
18 15.10 СЗ 2 20 км ясно +20.0 +10.6 55 +22 +22 комфорт 1018.8 1012.5 +25.8
19 15.10 С 2 20 км ясно +19.3 +10.1 55 +21 +21 комфорт 1018.8 1012.5
03 16.10 СЗ 3 20 км ясно +19.3 +8.6 50 +20 +20 1019.1 1012.8
05 16.10 С 2 20 км ясно +19.3 +8.2 49 +21 +21 комфорт 1019.4 1013.1
04 16.10 С 3 20 км ясно +19.9 +7.4 44 +21 +21 комфорт 1019.1 1012.8
06 16.10 СЗ 2 20 км ясно +19.6 +9.2 51 +21 +21 комфорт 1019.4 1013.1 +18.7
07 16.10 С 1 20 км 3/0
[Ci fib]
+21.1 +9.9 49 +23 +24 комфорт 1019.8 1013.5
08 16.10 ЮЗ 1 20 км 3/0
[Ci fib]
+22.4 +9.9 45 +24 +28 комфорт 1019.9 1013.7
09 16.10 ЮЗ 2 20 км 3/0
[Ci fib]
+23.1 +12.0 50 +26 +31 жарко 1020.2 1014.0
11 16.10 Ю 2 20 км 3/0
[Ci fib]
+24.5 +16.5 61 +28 +35 душно 1020.2 1014.0
10 16.10 Ю 3 20 км 3/0
[Ci fib]
+23.9 +13.0 50 +26 +32 жарко 1020.2 1014.0
12 16.10 Ю 2 20 км 3/0
[Ci fib]
+23.8 +16.6 64 +27 +34 жарко 1020.1 1013.9
13 16.10 ЮЗ 2 20 км 3/0
[Ci fib]
+24.0 +16.4 62 +27 +32 жарко 1019.7 1013.5
18 16.10 С 2 20 км ясно +19.0 +14.5 75 +21 +21 комфорт 1019.4 1013.1 +25.3
19 16.10 СЗ 2 20 км ясно +20.3 +13.6 65 +23 +23 комфорт 1019.4 1013.1
20 16.10 штиль 0 20 км ясно +18.3 +12.4 68 +19 +19 1019.4 1013.1
03 17.10 СЗ 1 20 км ясно +18.0 +10.5 62 +19 +19 1018.3 1012.0
04 17.10 В 1 20 км ясно +18.3 +8.6 53 +20 +20 1018.2 1011.9
05 17.10 С 2 20 км ясно +18.3 +8.0 51 +19 +19 1018.2 1011.9
06 17.10 СЗ 2 20 км 1/0
[Ci fib]
+18.4 +8.8 54 +19 +19 1018.3 1012.0 +18.0
07 17.10 С 1 20 км 1/0
[Ci fib]
+19.0 +11.1 60 +21 +23 комфорт 1018.4 1012.1
08 17.10 ЮЗ 1 20 км 1/0
[Ci fib]
+21.7 +10.0 47 +23 +27 комфорт 1018.3 1012.1
09 17.10 ЮЗ 2 20 км 1/0
[Ci fib]
+23.0 +10.0 44 +25 +30 комфорт 1018.1 1011.9
10 17.10 ЮЗ 2 20 км ясно +22.3 +13.7 58 +25 +33 комфорт 1018.1 1011.9
11 17.10 ЮЗ 2 20 км ясно +23.2 +13.9 56 +27 +34 душно 1017.4 1012.0
12 17.10 З 2 20 км 3/0
[Cc]
+23.6 +14.6 57 +26 +33 жарко 1017.1 1010.9
13 17.10 З 3 20 км 3/0
[Cc]
+23.4 +14.1 56 +27 +31 душно 1017.0 1010.8
18 17.10 СЗ 2 20 км ясно +19.4 +16.6 84 +22 +22 комфорт 1016.3 1010.0 +23.9
20 17.10 СЗ 3 20 км ясно +22.2 +8.0 40 +23 +23 комфорт 1015.8 1009.6
19 17.10 СЗ 2 20 км ясно +19.6 +12.1 62 +22 +22 комфорт 1015.9 1009.6
03 18.10 С 2 20 км ясно +19.3 +8.6 50 +21 +21 комфорт 1015.0 1008.7
04 18.10 штиль 0 20 км ясно +19.0 +8.2 49 +19 +19 1014.5 1008.2
05 18.10 Ю 1 20 км ясно +18.7 +8.5 51 +20 +20 1014.6 1008.3
06 18.10 С 2 20 км ясно +19.6 +8.6 49 +21 +21 комфорт 1014.6 1008.3 +18.4
08 18.10 ЮЗ 1 20 км ясно +23.0 +10.0 44 +25 +29 комфорт 1015.3 1009.1
07 18.10 С 2 20 км ясно +21.2 +10.0 49 +23 +24 комфорт 1015.0 1008.8
09 18.10 ЮЗ 2 20 км 1/1 1000 м
[Cu hum]
+23.2 +9.9 43 +25 +30 комфорт 1015.3 1009.1
10 18.10 Ю 2 20 км 1/1 1000 м
[Cu hum]
+24.1 +10.2 41 +25 +32 комфорт 1015.3 1009.1
11 18.10 Ю 2 20 км 3/1 1000 м
[Cu hum Ci fib]
+24.5 +15.6 58 +28 +34 душно 1014.5 1008.4
12 18.10 Ю 2 20 км 3/1 1000 м
[Cu hum Ci fib]
+24.2 +18.4 70 +29 +34 душно 1014.3 1008.2
18 18.10 СЗ 2 20 км ясно +19.8 +15.0 74 +22 +22 комфорт 1014.0 1007.8 +24.7
20 18.10 СЗ 2 20 км ясно +20.0 +12.9 64 +22 +22 комфорт 1014.2 1008.0
19 18.10 С 3 20 км ясно +19.2 +13.6 70 +21 +21 комфорт 1014.2 1007.9
03 19.10 С 1 20 км ясно +18.9 1014.5 1008.2
04 19.10 С 2 20 км ясно +18.7 +8.3 51 +20 +20 1014.5 1008.2
05 19.10 СЗ 1 20 км ясно +17.6 +8.0 53 +19 +19 1014.5 1008.2
06 19.10 С 3 20 км 3/1 600 м
[Cu hum Ci fib]
+17.7 +8.7 56 +18 +18 1015.2 1008.9 +19.0
08 19.10 ЮЗ 1 20 км ясно +22.3 +15.2 64 +26 +30 жарко 1015.8 1009.6
07 19.10 С 1 20 км ясно +20.0 +11.2 57 +23 +24 комфорт 1015.5 1009.2
10 19.10 ЮЗ 2 20 км ясно +23.3 +11.9 49 +26 +33 жарко 1016.2 1010.0
11 19.10 ЮЗ 2 20 км ясно +23.9 +15.6 60 +27 +34 жарко 1015.8 1009.6
12 19.10 ЮЗ 2 20 км ясно +24.0 +17.3 66 +28 +34 душно 1015.4 1009.2
13 19.10 ЮЗ 3 20 км 1/1 1000 м
[Cu med, cong]
+24.1 +17.7 67 +28 +32 душно 1015.0 1008.9
18 19.10 С 2 20 км ясно +19.8 +17.0 84 +23 +23 комфорт 1015.4 1009.2 +24.1
19 19.10 СЗ 2 20 км ясно +19.6 +16.9 84 +22 +22 комфорт 1015.8 1009.6
20 19.10 С 4 20 км ясно +18.8 +16.7 88 +20 +20 1016.1 1009.8
03 20.10 СВ 9 20 км ясно +21.3 +7.0 40 +22 +22 комфорт 1016.2 1010.0
04 20.10 ЮВ 3 20 км ясно +21.0 +7.3 41 +23 +23 комфорт 1016.6 1010.4
05 20.10 СВ 7 20 км ясно +20.7 +8.2 45 +22 +22 комфорт 1016.6 1010.4
06 20.10 СВ 9 20 км 1/1 1000 м
[Cu med, cong]
+20.5 +7.5 43 +21 +21 комфорт 1017.3 1011.0 +18.7
07 20.10 СВ 5 20 км 1/1 1000 м
[Cu med, cong]
+21.2 +7.8 42 +22 +23 комфорт 1018.2 1012.0
08 20.10 СВ 7 20 км ясно +22.1 +7.4 39 +23 +24 комфорт 1018.2 1012.0
09 20.10 СВ 2 20 км ясно +23.3 +7.7 37 +24 +30 комфорт 1018.4 1012.2
10 20.10 В 3 20 км ясно +25.1 +7.7 33 +25 +31 комфорт 1018.6 1012.4
11 20.10 З 3 20 км 1/1 1000 м
[Cu hum]
+25.2 +9.3 37 +26 +31 жарко 1018.6 1012.4
12 20.10 З 5 20 км 1/1 1000 м
[Cu hum]
+24.1 +9.5 40 +25 +28 комфорт 1018.2 1012.0
13 20.10 З 4 20 км 1/1 1000 м
[Cu hum]
+24.7 +11.9 45 +26 +29 жарко 1018.2 1012.0
18 20.10 СВ 7 20 км ясно +21.7 +1.8 27 +21 +21 комфорт 1018.2 1012.0 +26.1
19 20.10 СВ 9 20 км ясно +20.9 +2.9 30 +21 +21 комфорт 1018.3 1012.0
20 20.10 СВ 10 20 км ясно +20.7 +3.1 31 +20 +20 1018.5 1012.2
03 21.10 СВ 4 20 км ясно +19.0 +4.1 37 +19 +19 1017.5 1011.2
05 21.10 СВ 4 20 км ясно +18.5 +4.4 39 +19 +19 1017.3 1011.0
04 21.10 СВ 6 20 км ясно +18.1 +4.0 39 +18 +18 1017.4 1011.1
06 21.10 СВ 5 20 км 4/0
[Ac cast Ci fib]
+18.4 +5.0 41 +18 +18 1017.1 1010.8 +17.9
07 21.10 СВ 8 20 км 8/0
[Ac und]
+19.3 +5.3 40 +19 +19 1016.7 1010.4
08 21.10 СВ 9 20 км 9/0
[Ac As]
+19.3 +3.4 35 +19 +19 1017.3 1011.0
09 21.10 СВ 8 20 км 9/0
[Ac As]
+20.0 +4.3 36 +20 +20 1017.3 1011.0
11 21.10 СВ 9 20 км 9/1 1000 м
[Cu med, cong As trans]
+20.1 +3.9 34 +20 +20 1016.3 1010.0
12 21.10 СВ 5 20 км слабый дождь 10/0
[Ac As]
+19.0 +9.7 55 +19 +20 1016.2 1009.9 0.1
13 21.10 штиль 0 50 км в посл. час дождь ?/? +19.2 +11.2 60 +20 +20 1016.0 1009.7
18 21.10 ЮВ 1 20 км ясно +24.0 1015.3 1009.1 +30.1
19 21.10 СВ 8 20 км 6/0
[Cs]
+16.6 +1.8 37 +15 +15 1015.8 1009.5
20 21.10 СВ 9 20 км 6/0
[Cs]
+16.2 +2.6 40 +15 +15 1016.3 1009.9
03 22.10 СВ 8 20 км ясно +15.8 +3.4 43 +14 +14 1014.4 1008.1
05 22.10 СВ 10 20 км ясно +16.0 +3.9 44 +14 +14 1014.2 1007.9
04 22.10 СВ 9 20 км ясно +15.5 +3.5 45 +14 +14 1014.5 1008.1

 

Местоположение метеостанции Dubrovnik-Gorica (Хорватия): широта 42.65 долгота 18.08 высота над уровнем моря 53 м.

В архиве по умолчанию представлена погода в Dubrovnik-Gorica за последнюю неделю. Архивные данные за месяц целиком и за предыдущие месяцы, начиная с января 2011 года, Вы можете получить, выбрав интересующий диапазон дат из раскрывающегося списка и нажав кнопку "Ввод!".


*Определитесь, кто Вы:
робот инопланетянин человек

Внимание! Время в таблицах - всемирное. Для получения местного времени необходимо прибавить поправку, которая в Dubrovnik-Gorica равна 1 ч.

Смотрите также архив погоды в соседних городах и на ближайших метеорологических станциях:

Погода в Dubrovnik-Cilipi (Хорватия) (18 км)
Погода в Neum (Босния и Герцеговина) (49 км)
Погода в Tivat (Черногория) (60 км)
Погода в Ploce (Хорватия) (68 км)
Погода в Niksic (Черногория) (72 км)
Погода в Mostar (Босния и Герцеговина) (81 км)
Погода в Lastovo (Хорватия) (97 км)
Погода в Podgorica (Черногория) (101 км)
Погода в Podgorica-Grad (Черногория) (101 км)
Погода в Bar (Черногория) (104 км)

Пояснения к столбцам:

Ветер - указаны скорость ветра в м/с - средняя за 10 мин, порывы в срок и между сроками (в фигурных скобках) и направление, откуда дует ветер: С - северный, СВ - северо-восточный, В - восточный, ЮВ - юго-восточный, Ю - южный, ЮЗ - юго-западный, З - западный, СЗ - северо-западный.
Видимость - горизонтальная дальность видимости в метрах или километрах. При видимости от 1 до 10 км при отсутствии осадков обычно наблюдается дымка, при ухудшении видимости до 1 км и менее - туман. В сухую погоду видимость может ухудшаться дымом, пылью или мглою.
Явления - указаны атмосферные явления, наблюдавшиеся в срок или в последний час перед сроком; фигурными скобками обозначены явления, наблюдавшиеся между сроками (за 1-3 часа до срока); квадратными скобками обозначены град или гололедные отложения с указанием их диаметра в мм.
Облачность - указаны через наклонную черту общая и нижняя облачность в баллах и высота нижней границы облаков в метрах; квадратными скобками обозначены формы облаков: Ci - перистые, Cs - перисто-слоистые, Cc - перисто-кучевые, Ac - высококучевые, As - высокослоистые, Sc - слоисто-кучевые, Ns - слоисто-дождевые, Cu - кучевые, Cb - кучево-дождевые. Подробнее классификацию облаков см. в Атласе облаков (PDF).
T - Температура воздуха - температура, измеренная на высоте 2 м над землей.
Td - Температура точки росы - температура, при понижении до которой содержащийся в воздухе водяной пар достигнет насыщения.
f - Относительная влажность воздуха - влажноcть воздуха, измеренная на высоте 2 м над землей.
Te - Эффективная температура - температура, которую ощущает одетый по сезону человек в тени. Характеристика душности погоды. При расчете учитывается влияние влажности воздуха и скорости ветра на теплоощущения человека.
Tes - Эффективная температура на солнце - температура, которую ощущает человек, с поправкой на солнечный нагрев. Характеристика знойности погоды. Зависит от высоты солнца над горизонтом, облачности и скорости ветра. Ночью, в пасмурную погоду, а также при ветре 12 м/с и более поправка равна нулю.
P - Атмосферное давление - приведенное к уровню моря атмосферное давление.
Po - Атмосферное давление - измеренное на уровне метеостанции атмосферное давление.
Tmin - Минимальная температура - минимум температуры воздуха на высоте 2 м над землей.
Tmax - Максимальная температура - максимум температуры воздуха на высоте 2 м над землей.
R - Количество осадков - Количество выпавших осадков за период времени, мм. При наведении курсора мыши на число - период времени, за который выпало указанное количество осадков.
R24 - Количество осадков - Количество выпавших осадков за 24 часа, мм.
S - Снежный покров - Высота снежного покрова, см. При наведении курсора мыши на число - состояние снежного покрова и степень покрытия местности в баллах.